| time (UTC) | temp F | wind direction | speed MPH | gust MPH | rain 1hr in | rain 24hr in | rain mn in | humidity % | barometer mb |
| 20260831125020 | 72 | 233 | 3.0 | 8.0 | 0.00 | 0.00 | 0.00 | 59 | |
| 20260831124028 | 72 | 208 | 2.0 | 7.0 | 0.00 | 0.00 | 0.00 | 59 | |
| 20260831123020 | 73 | 197 | 1.0 | 5.0 | 0.00 | 0.00 | 0.00 | 60 | |
| 20260831122030 | 72 | 165 | 2.0 | 5.0 | 0.00 | 0.00 | 0.00 | 59 | |
| 20260831121021 | 72 | 244 | 2.0 | 8.0 | 0.00 | 0.00 | 0.00 | 60 | |
| 20260831120024 | 72 | 83 | 3.0 | 7.0 | 0.00 | 0.00 | 0.00 | 61 | |
| 20260831115021 | 73 | 132 | 2.0 | 4.0 | 0.00 | 0.00 | 0.00 | 57 | |
| 20260831114031 | 74 | 105 | 2.0 | 4.0 | 0.00 | 0.00 | 0.00 | 55 | |
| 20260831113020 | 74 | 339 | 2.0 | 7.0 | 0.00 | 0.00 | 0.00 | 57 | |
| 20260831112028 | 74 | 171 | 2.0 | 6.0 | 0.00 | 0.00 | 0.00 | 56 | |
| 20260831111023 | 76 | 146 | 2.0 | 7.0 | 0.00 | 0.00 | 0.00 | 57 | |
| 20260831110029 | 75 | 166 | 2.0 | 4.0 | 0.00 | 0.00 | 0.00 | 60 | |
| 20260831105020 | 74 | 245 | 3.0 | 9.0 | 0.00 | 0.00 | 0.00 | 60 | |
| 20260831104030 | 73 | 168 | 2.0 | 8.0 | 0.00 | 0.00 | 0.00 | 64 | |
| 20260831103022 | 73 | 172 | 3.0 | 6.0 | 0.00 | 0.00 | 0.00 | 62 | |
| 20260831102020 | 73 | 111 | 2.0 | 7.0 | 0.00 | 0.00 | 0.00 | 62 | |
| 20260831101021 | 72 | 226 | 2.0 | 7.0 | 0.00 | 0.00 | 0.00 | 66 | |
| 20260831100030 | 70 | 92 | 3.0 | 10.0 | 0.00 | 0.00 | 0.00 | 68 | |
| 20260831095022 | 70 | 102 | 1.0 | 5.0 | 0.00 | 0.00 | 0.00 | 72 | |
| 20260831094029 | 70 | 247 | 2.0 | 8.0 | 0.00 | 0.00 | 0.00 | 69 | |
| 20260831093022 | 73 | 227 | 2.0 | 7.0 | 0.00 | 0.00 | 0.00 | 64 | |
| 20260831092030 | 72 | 158 | 1.0 | 5.0 | 0.00 | 0.00 | 0.00 | 67 | |
| 20260831091020 | 72 | 165 | 2.0 | 7.0 | 0.00 | 0.00 | 0.00 | 68 | |
| 20260831090030 | 72 | 89 | 1.0 | 4.0 | 0.00 | 0.00 | 0.00 | 69 | |
| 20260831085021 | 71 | 202 | 1.0 | 7.0 | 0.00 | 0.00 | 0.00 | 71 | |
| 20260831084030 | 71 | 119 | 2.0 | 5.0 | 0.00 | 0.00 | 0.00 | 73 | |
| 20260831083020 | 70 | 74 | 2.0 | 4.0 | 0.00 | 0.00 | 0.00 | 76 | |
| 20260831082029 | 69 | 180 | 2.0 | 4.0 | 0.00 | 0.00 | 0.00 | 79 | |
| 20260831081021 | 67 | 119 | 2.0 | 5.0 | 0.00 | 0.00 | 0.00 | 83 | |
| 20260831080027 | 65 | 163 | 1.0 | 2.0 | 0.00 | 0.00 | 0.00 | 89 | |
| 20260831075021 | 65 | 144 | 1.0 | 3.0 | 0.00 | 0.00 | 0.00 | 89 | |
| 20260831074030 | 64 | 142 | 1.0 | 2.0 | 0.00 | 0.00 | 0.00 | 90 | |
| 20260831073020 | 64 | 187 | 1.0 | 3.0 | 0.00 | 0.00 | 0.00 | 89 | |
| 20260831072028 | 64 | 167 | 1.0 | 5.0 | 0.00 | 0.00 | 0.00 | 87 | |
| 20260831071022 | 64 | 169 | 1.0 | 4.0 | 0.00 | 0.00 | 0.00 | 86 | |
| 20260831070028 | 64 | 157 | 1.0 | 3.0 | 0.00 | 0.00 | 0.00 | 86 | |
| 20260831065020 | 64 | 145 | 1.0 | 4.0 | 0.00 | 0.00 | 0.00 | 87 | |
| 20260831064030 | 64 | 206 | 1.0 | 5.0 | 0.00 | 0.00 | 0.00 | 87 | |
| 20260831063023 | 64 | 208 | 2.0 | 5.0 | 0.00 | 0.00 | 0.00 | 88 | |
| 20260831062029 | 63 | 212 | 1.0 | 5.0 | 0.00 | 0.00 | 0.00 | 88 | |
| 20260831061020 | 63 | 49 | 1.0 | 7.0 | 0.00 | 0.00 | 0.00 | 90 | |
| 20260831060028 | 62 | 163 | 2.0 | 4.0 | 0.00 | 0.00 | 0.00 | 92 | |
| 20260831055020 | 61 | 142 | 0.0 | 2.0 | 0.00 | 0.00 | 0.00 | 93 | |
| 20260831054030 | 60 | 185 | 0.0 | 2.0 | 0.00 | 0.00 | 0.00 | 93 | |
| 20260831053022 | 60 | 214 | 0.0 | 1.0 | 0.00 | 0.00 | 0.00 | 93 | |
| 20260831052028 | 60 | 155 | 1.0 | 3.0 | 0.00 | 0.00 | 0.00 | 93 | |
| 20260831051020 | 60 | 157 | 1.0 | 2.0 | 0.00 | 0.00 | 0.00 | 93 | |
| 20260831050022 | 59 | 201 | 1.0 | 3.0 | 0.00 | 0.00 | 0.00 | 93 | |
| 20260831045021 | 60 | 175 | 1.0 | 2.0 | 0.00 | 0.00 | 0.00 | 92 | |
| 20260831044028 | 60 | 184 | 1.0 | 3.0 | 0.00 | 0.00 | 0.00 | 92 | |
| 20260831043021 | 60 | 169 | 1.0 | 3.0 | 0.00 | 0.00 | 0.00 | 91 | |
| 20260831042029 | 60 | 180 | 1.0 | 2.0 | 0.00 | 0.00 | 0.00 | 90 | |
| 20260831041024 | 61 | 151 | 2.0 | 4.0 | 0.00 | 0.00 | 0.00 | 89 | |
| 20260831040031 | 61 | 146 | 3.0 | 7.0 | 0.00 | 0.00 | 0.00 | 89 | |
| 20260831035023 | 60 | 149 | 2.0 | 4.0 | 0.00 | 0.00 | 0.00 | 90 | |
| 20260831034030 | 60 | 143 | 2.0 | 4.0 | 0.00 | 0.00 | 0.00 | 90 | |
| 20260831033020 | 60 | 148 | 2.0 | 4.0 | 0.00 | 0.00 | 0.00 | 90 | |
| 20260831032020 | 59 | 139 | 1.0 | 2.0 | 0.00 | 0.00 | 0.00 | 91 | |
| 20260831031021 | 59 | 143 | 0.0 | 2.0 | 0.00 | 0.00 | 0.00 | 91 | |
| 20260831030029 | 59 | 170 | 0.0 | 2.0 | 0.00 | 0.00 | 0.00 | 92 | |
| 20260831025023 | 59 | 180 | 1.0 | 3.0 | 0.00 | 0.00 | 0.00 | 92 | |
| 20260831024028 | 59 | 148 | 0.0 | 1.0 | 0.00 | 0.00 | 0.00 | 92 | |
| 20260831023021 | 59 | 230 | 0.0 | 2.0 | 0.00 | 0.00 | 0.00 | 92 | |
| 20260831022030 | 59 | 168 | 1.0 | 2.0 | 0.00 | 0.00 | 0.00 | 92 | |
| 20260831021020 | 59 | 179 | 0.0 | 2.0 | 0.00 | 0.00 | 0.00 | 92 | |
| 20260831020029 | 59 | 130 | 0.0 | 2.0 | 0.00 | 0.00 | 0.00 | 93 | |
| 20260831015022 | 59 | 152 | 0.0 | 2.0 | 0.00 | 0.00 | 0.00 | 94 | |
| 20260831014028 | 58 | 143 | 0.0 | 2.0 | 0.00 | 0.00 | 0.00 | 94 | |
| 20260831013022 | 58 | 0.0 | 0.0 | 0.00 | 0.00 | 0.00 | 94 | ||
| 20260831012030 | 58 | 0.0 | 0.0 | 0.00 | 0.00 | 0.00 | 94 | ||
| 20260831011024 | 58 | 0.0 | 0.0 | 0.00 | 0.00 | 0.00 | 93 | ||
| 20260831010030 | 58 | 0.0 | 0.0 | 0.00 | 0.00 | 0.00 | 93 | ||
| 20260831005020 | 58 | 0.0 | 0.0 | 0.00 | 0.00 | 0.00 | 92 | ||
| 20260831004029 | 59 | 0.0 | 0.0 | 0.00 | 0.00 | 0.00 | 91 | ||
| 20260831003020 | 59 | 0.0 | 0.0 | 0.00 | 0.00 | 0.00 | 91 | ||
| 20260831002032 | 59 | 148 | 0.0 | 2.0 | 0.00 | 0.00 | 0.00 | 91 | |
| 20260831001020 | 59 | 164 | 0.0 | 3.0 | 0.00 | 0.00 | 0.00 | 91 | |
| 20260831000028 | 59 | 150 | 0.0 | 2.0 | 0.00 | 0.00 | 0.00 | 91 | |
| 20260830235020 | 59 | 209 | 0.0 | 1.0 | 0.00 | 0.00 | 0.00 | 91 | |
| 20260830234024 | 59 | 0.0 | 0.0 | 0.00 | 0.00 | 0.00 | 91 | ||
| 20260830233020 | 59 | 142 | 0.0 | 1.0 | 0.00 | 0.00 | 0.00 | 91 | |
| 20260830232028 | 59 | 148 | 0.0 | 2.0 | 0.00 | 0.00 | 0.00 | 92 | |
| 20260830231020 | 59 | 143 | 0.0 | 2.0 | 0.00 | 0.00 | 0.00 | 92 | |
| 20260830230029 | 59 | 191 | 0.0 | 1.0 | 0.00 | 0.00 | 0.00 | 92 | |
| 20260830225020 | 59 | 0.0 | 0.0 | 0.00 | 0.00 | 0.00 | 92 | ||
| 20260830224030 | 58 | 217 | 0.0 | 1.0 | 0.00 | 0.00 | 0.00 | 92 | |
| 20260830223020 | 58 | 0.0 | 0.0 | 0.00 | 0.00 | 0.00 | 92 | ||
| 20260830222029 | 58 | 0.0 | 0.0 | 0.00 | 0.00 | 0.00 | 92 | ||
| 20260830221020 | 58 | 0.0 | 0.0 | 0.00 | 0.00 | 0.00 | 91 | ||
| 20260830220024 | 58 | 0.0 | 0.0 | 0.00 | 0.00 | 0.00 | 90 | ||
| 20260830215020 | 58 | 0.0 | 0.0 | 0.00 | 0.00 | 0.00 | 90 | ||
| 20260830214028 | 59 | 0.0 | 0.0 | 0.00 | 0.00 | 0.00 | 90 | ||
| 20260830213021 | 59 | 0.0 | 0.0 | 0.00 | 0.00 | 0.00 | 89 | ||
| 20260830212028 | 59 | 0.0 | 0.0 | 0.00 | 0.00 | 0.00 | 89 | ||
| 20260830211025 | 60 | 0.0 | 0.0 | 0.00 | 0.00 | 0.00 | 89 | ||
| 20260830210029 | 60 | 0.0 | 0.0 | 0.00 | 0.00 | 0.00 | 88 | ||
| 20260830205021 | 60 | 0.0 | 0.0 | 0.00 | 0.00 | 0.00 | 88 | ||
| 20260830204030 | 60 | 0.0 | 0.0 | 0.00 | 0.00 | 0.00 | 87 | ||
| 20260830203020 | 60 | 0.0 | 0.0 | 0.00 | 0.00 | 0.00 | 88 | ||
| 20260830202022 | 61 | 234 | 0.0 | 1.0 | 0.00 | 0.00 | 0.00 | 87 | |
| 20260830201021 | 60 | 0.0 | 0.0 | 0.00 | 0.00 | 0.00 | 87 | ||
| 20260830200030 | 61 | 0.0 | 0.0 | 0.00 | 0.00 | 0.00 | 87 | ||
| 20260830195021 | 61 | 0.0 | 0.0 | 0.00 | 0.00 | 0.00 | 86 | ||
| 20260830194030 | 62 | 0.0 | 0.0 | 0.00 | 0.00 | 0.00 | 86 | ||
| 20260830193020 | 62 | 0.0 | 0.0 | 0.00 | 0.00 | 0.00 | 85 | ||
| 20260830192031 | 63 | 0.0 | 0.0 | 0.00 | 0.00 | 0.00 | 83 | ||
| 20260830191021 | 63 | 0.0 | 0.0 | 0.00 | 0.00 | 0.00 | 82 | ||
| 20260830190032 | 63 | 0.0 | 0.0 | 0.00 | 0.00 | 0.00 | 80 | ||
| 20260830185021 | 64 | 0.0 | 0.0 | 0.00 | 0.00 | 0.00 | 78 | ||
| 20260830184028 | 65 | 0.0 | 0.0 | 0.00 | 0.00 | 0.00 | 75 | ||
| 20260830183020 | 65 | 0.0 | 0.0 | 0.00 | 0.00 | 0.00 | 74 | ||
| 20260830182023 | 66 | 0.0 | 0.0 | 0.00 | 0.00 | 0.00 | 71 | ||
| 20260830181020 | 67 | 0.0 | 0.0 | 0.00 | 0.00 | 0.00 | 70 | ||
| 20260830180028 | 68 | 0.0 | 0.0 | 0.00 | 0.00 | 0.00 | 68 | ||
| 20260830175022 | 69 | 338 | 0.0 | 1.0 | 0.00 | 0.00 | 0.00 | 66 | |
| 20260830174030 | 70 | 338 | 0.0 | 2.0 | 0.00 | 0.00 | 0.00 | 64 | |
| 20260830173020 | 70 | 348 | 0.0 | 2.0 | 0.00 | 0.00 | 0.00 | 63 | |
| 20260830172030 | 71 | 327 | 1.0 | 4.0 | 0.00 | 0.00 | 0.00 | 61 | |
| 20260830171020 | 71 | 354 | 2.0 | 4.0 | 0.00 | 0.00 | 0.00 | 62 | |
| 20260830170030 | 71 | 318 | 1.0 | 2.0 | 0.00 | 0.00 | 0.00 | 61 | |
| 20260830165021 | 72 | 336 | 1.0 | 5.0 | 0.00 | 0.00 | 0.00 | 60 | |
| 20260830164030 | 72 | 317 | 1.0 | 2.0 | 0.00 | 0.00 | 0.00 | 61 | |
| 20260830163020 | 73 | 276 | 1.0 | 4.0 | 0.00 | 0.00 | 0.00 | 58 | |
| 20260830162030 | 73 | 332 | 1.0 | 4.0 | 0.00 | 0.00 | 0.00 | 59 | |
| 20260830161021 | 73 | 99 | 1.0 | 4.0 | 0.00 | 0.00 | 0.00 | 59 | |
| 20260830160030 | 73 | 323 | 0.0 | 3.0 | 0.00 | 0.00 | 0.00 | 59 | |
| 20260830155020 | 73 | 336 | 1.0 | 4.0 | 0.00 | 0.00 | 0.00 | 59 | |
| 20260830154029 | 73 | 333 | 2.0 | 4.0 | 0.00 | 0.00 | 0.00 | 59 | |
| 20260830153020 | 73 | 346 | 2.0 | 5.0 | 0.00 | 0.00 | 0.00 | 59 | |
| 20260830152021 | 73 | 286 | 2.0 | 5.0 | 0.00 | 0.00 | 0.00 | 58 | |
| 20260830151022 | 74 | 351 | 2.0 | 6.0 | 0.00 | 0.00 | 0.00 | 58 | |
| 20260830150026 | 74 | 351 | 3.0 | 8.0 | 0.00 | 0.00 | 0.00 | 58 | |
| 20260830145021 | 74 | 282 | 2.0 | 7.0 | 0.00 | 0.00 | 0.00 | 59 | |
| 20260830144030 | 74 | 19 | 1.0 | 4.0 | 0.00 | 0.00 | 0.00 | 59 | |
| 20260830143021 | 74 | 253 | 2.0 | 7.0 | 0.00 | 0.00 | 0.00 | 57 | |
| 20260830142029 | 74 | 310 | 2.0 | 4.0 | 0.00 | 0.00 | 0.00 | 59 | |
| 20260830141023 | 73 | 276 | 2.0 | 7.0 | 0.00 | 0.00 | 0.00 | 61 | |
| 20260830140028 | 73 | 3 | 1.0 | 6.0 | 0.00 | 0.00 | 0.00 | 61 | |
| 20260830135020 | 73 | 332 | 2.0 | 7.0 | 0.00 | 0.00 | 0.00 | 59 | |
| 20260830134029 | 74 | 36 | 2.0 | 5.0 | 0.00 | 0.00 | 0.00 | 57 | |
| 20260830133021 | 74 | 299 | 2.0 | 4.0 | 0.00 | 0.00 | 0.00 | 58 | |
| 20260830132022 | 74 | 347 | 2.0 | 6.0 | 0.00 | 0.00 | 0.00 | 57 | |
| 20260830131020 | 74 | 345 | 1.0 | 5.0 | 0.00 | 0.00 | 0.00 | 59 | |
| 20260830130026 | 75 | 302 | 1.0 | 5.0 | 0.00 | 0.00 | 0.00 | 58 |